Time,TemperatureF,DewpointF,PressureIn,WindDirection,WindDirectionDegrees,WindSpeedMPH,WindSpeedGustMPH,Humidity,HourlyPrecipIn,Conditions,Clouds,dailyrainin,SolarRadiationWatts/m^2,SoftwareType,DateUTC
2013-06-16 00:01:00,52.0,22.0,-100.00,North,355,8.0,16.0,31,0.00,,,0.00,0.000000,,2013-06-16 06:01:00,
2013-06-16 00:33:00,51.0,21.0,-100.00,NNW,340,11.0,19.0,31,0.00,,,0.00,0.000000,,2013-06-16 06:33:00,
2013-06-16 00:43:00,51.0,21.0,-100.00,NNW,340,11.0,19.0,31,0.00,,,0.00,0.000000,,2013-06-16 06:43:00,
2013-06-16 00:52:00,51.0,21.0,-100.00,NNW,340,11.0,19.0,31,0.00,,,0.00,0.000000,,2013-06-16 06:52:00,
2013-06-16 01:01:00,51.0,21.0,-100.00,NNW,340,11.0,19.0,31,0.00,,,0.00,0.000000,,2013-06-16 07:01:00,
2013-06-16 01:43:00,50.0,24.0,-100.00,NW,324,11.0,15.0,36,0.00,,,-99.99,0.000000,,2013-06-16 07:43:00,
2013-06-16 01:53:00,50.0,24.0,-100.00,NW,324,11.0,15.0,36,0.00,,,-99.99,0.000000,,2013-06-16 07:53:00,
2013-06-16 02:02:00,50.0,24.0,-100.00,NW,324,11.0,15.0,36,0.00,,,-99.99,0.000000,,2013-06-16 08:02:00,
2013-06-16 02:34:00,49.0,25.0,-100.00,NNW,348,5.0,12.0,38,0.00,,,0.00,0.000000,,2013-06-16 08:34:00,
2013-06-16 02:43:00,49.0,25.0,-100.00,NNW,348,5.0,12.0,38,0.00,,,0.00,0.000000,,2013-06-16 08:43:00,
2013-06-16 02:54:00,49.0,25.0,-100.00,NNW,348,5.0,12.0,38,0.00,,,0.00,0.000000,,2013-06-16 08:54:00,
2013-06-16 03:01:00,49.0,25.0,-100.00,NNW,348,5.0,12.0,38,0.00,,,0.00,0.000000,,2013-06-16 09:01:00,
2013-06-16 03:33:00,50.0,27.0,-100.00,North,353,5.0,9.0,40,0.00,,,0.00,0.000000,,2013-06-16 09:33:00,
2013-06-16 03:43:00,50.0,27.0,-100.00,North,353,5.0,9.0,40,0.00,,,0.00,0.000000,,2013-06-16 09:43:00,
2013-06-16 03:52:00,50.0,27.0,-100.00,North,353,5.0,9.0,40,0.00,,,0.00,0.000000,,2013-06-16 09:52:00,
2013-06-16 04:33:00,50.0,24.0,-100.00,NNE,13,5.0,7.0,36,0.00,,,-99.99,0.000000,,2013-06-16 10:33:00,
2013-06-16 04:43:00,50.0,24.0,-100.00,NNE,13,5.0,7.0,36,0.00,,,-99.99,0.000000,,2013-06-16 10:43:00,
2013-06-16 04:53:00,50.0,24.0,-100.00,NNE,13,5.0,7.0,36,0.00,,,-99.99,0.000000,,2013-06-16 10:53:00,
2013-06-16 05:02:00,50.0,24.0,-100.00,NNE,13,5.0,7.0,36,0.00,,,-99.99,0.000000,,2013-06-16 11:02:00,
2013-06-16 05:43:00,49.0,23.0,-100.00,ESE,120,0.0,6.0,35,0.00,,,0.00,0.000000,,2013-06-16 11:43:00,
2013-06-16 05:53:00,49.0,23.0,-100.00,ESE,120,0.0,6.0,35,0.00,,,0.00,0.000000,,2013-06-16 11:53:00,
2013-06-16 06:01:00,49.0,23.0,-100.00,ESE,120,0.0,6.0,35,0.00,,,0.00,0.000000,,2013-06-16 12:01:00,
2013-06-16 06:33:00,49.0,23.0,-100.00,SE,130,3.0,4.0,35,0.00,,,-99.99,4.000000,,2013-06-16 12:33:00,
2013-06-16 06:43:00,49.0,23.0,-100.00,SE,130,3.0,4.0,35,0.00,,,-99.99,4.000000,,2013-06-16 12:43:00,
2013-06-16 06:53:00,49.0,23.0,-100.00,SE,130,3.0,4.0,35,0.00,,,-99.99,4.000000,,2013-06-16 12:53:00,
2013-06-16 07:01:00,49.0,23.0,-100.00,SE,130,3.0,4.0,35,0.00,,,-99.99,4.000000,,2013-06-16 13:01:00,
2013-06-16 07:34:00,51.0,26.0,-100.00,SSE,157,5.0,7.0,37,0.00,,,0.00,114.000000,,2013-06-16 13:34:00,
2013-06-16 07:43:00,51.0,26.0,-100.00,SSE,157,5.0,7.0,37,0.00,,,0.00,114.000000,,2013-06-16 13:43:00,
2013-06-16 07:53:00,51.0,26.0,-100.00,SSE,157,5.0,7.0,37,0.00,,,0.00,114.000000,,2013-06-16 13:53:00,
2013-06-16 08:01:00,51.0,26.0,-100.00,SSE,157,5.0,7.0,37,0.00,,,0.00,114.000000,,2013-06-16 14:01:00,
2013-06-16 08:34:00,53.0,29.0,-100.00,SSE,159,8.0,10.0,39,0.00,,,0.00,310.000000,,2013-06-16 14:34:00,
2013-06-16 08:43:00,53.0,29.0,-100.00,SSE,159,8.0,10.0,39,0.00,,,0.00,310.000000,,2013-06-16 14:43:00,
2013-06-16 08:52:00,53.0,29.0,-100.00,SSE,159,8.0,10.0,39,0.00,,,0.00,310.000000,,2013-06-16 14:52:00,
2013-06-16 09:02:00,53.0,29.0,-100.00,SSE,159,8.0,10.0,39,0.00,,,0.00,310.000000,,2013-06-16 15:02:00,
2013-06-16 09:34:00,55.0,28.0,-100.00,South,170,6.0,9.0,35,0.00,,,0.00,541.000000,,2013-06-16 15:34:00,
2013-06-16 09:43:00,55.0,28.0,-100.00,South,170,6.0,9.0,35,0.00,,,0.00,541.000000,,2013-06-16 15:43:00,
2013-06-16 09:52:00,55.0,28.0,-100.00,South,170,6.0,9.0,35,0.00,,,0.00,541.000000,,2013-06-16 15:52:00,
2013-06-16 10:01:00,55.0,28.0,-100.00,South,170,6.0,9.0,35,0.00,,,0.00,541.000000,,2013-06-16 16:01:00,
2013-06-16 10:33:00,60.0,29.0,-100.00,West,261,3.0,8.0,31,0.00,,,0.00,781.000000,,2013-06-16 16:33:00,
2013-06-16 10:43:00,60.0,29.0,-100.00,West,261,3.0,8.0,31,0.00,,,0.00,781.000000,,2013-06-16 16:43:00,
2013-06-16 10:53:00,60.0,29.0,-100.00,West,261,3.0,8.0,31,0.00,,,0.00,781.000000,,2013-06-16 16:53:00,
2013-06-16 11:01:00,60.0,29.0,-100.00,West,261,3.0,8.0,31,0.00,,,0.00,781.000000,,2013-06-16 17:01:00,
2013-06-16 11:43:00,62.0,33.0,-100.00,WSW,255,4.0,6.0,34,0.00,,,0.00,919.000000,,2013-06-16 17:43:00,
2013-06-16 11:53:00,62.0,33.0,-100.00,WSW,255,4.0,6.0,34,0.00,,,0.00,919.000000,,2013-06-16 17:53:00,
2013-06-16 12:01:00,62.0,33.0,-100.00,WSW,255,4.0,6.0,34,0.00,,,0.00,919.000000,,2013-06-16 18:01:00,
2013-06-16 12:34:00,64.0,36.0,-100.00,WNW,292,6.0,10.0,35,0.00,,,0.00,1084.000000,,2013-06-16 18:34:00,
2013-06-16 12:43:00,64.0,36.0,-100.00,WNW,292,6.0,10.0,35,0.00,,,0.00,1084.000000,,2013-06-16 18:43:00,
2013-06-16 12:52:00,64.0,36.0,-100.00,WNW,292,6.0,10.0,35,0.00,,,0.00,1084.000000,,2013-06-16 18:52:00,
2013-06-16 13:01:00,64.0,36.0,-100.00,WNW,292,6.0,10.0,35,0.00,,,0.00,1084.000000,,2013-06-16 19:01:00,
2013-06-16 13:34:00,65.0,30.0,-100.00,WNW,286,7.0,11.0,27,0.00,,,0.00,1264.000000,,2013-06-16 19:34:00,
2013-06-16 13:43:00,65.0,30.0,-100.00,WNW,286,7.0,11.0,27,0.00,,,0.00,1264.000000,,2013-06-16 19:43:00,
2013-06-16 13:53:00,65.0,30.0,-100.00,WNW,286,7.0,11.0,27,0.00,,,0.00,1264.000000,,2013-06-16 19:53:00,
2013-06-16 14:01:00,65.0,30.0,-100.00,WNW,286,7.0,11.0,27,0.00,,,0.00,1264.000000,,2013-06-16 20:01:00,
2013-06-16 14:33:00,66.0,34.0,-100.00,WSW,248,5.0,12.0,31,0.00,,,0.00,1161.000000,,2013-06-16 20:33:00,
2013-06-16 14:43:00,66.0,34.0,-100.00,WSW,248,5.0,12.0,31,0.00,,,0.00,1161.000000,,2013-06-16 20:43:00,
2013-06-16 14:53:00,66.0,34.0,-100.00,WSW,248,5.0,12.0,31,0.00,,,0.00,1161.000000,,2013-06-16 20:53:00,
2013-06-16 15:01:00,66.0,34.0,-100.00,WSW,248,5.0,12.0,31,0.00,,,0.00,1161.000000,,2013-06-16 21:01:00,
2013-06-16 15:33:00,67.0,33.0,-100.00,WNW,302,6.0,15.0,28,0.00,,,0.00,1122.000000,,2013-06-16 21:33:00,
2013-06-16 15:42:00,67.0,33.0,-100.00,WNW,302,6.0,15.0,28,0.00,,,0.00,1122.000000,,2013-06-16 21:42:00,
2013-06-16 15:53:00,67.0,33.0,-100.00,WNW,302,6.0,15.0,28,0.00,,,0.00,1122.000000,,2013-06-16 21:53:00,
2013-06-16 16:01:00,67.0,33.0,-100.00,WNW,302,6.0,15.0,28,0.00,,,0.00,1122.000000,,2013-06-16 22:01:00,
2013-06-16 16:32:00,67.0,29.0,-100.00,North,350,7.0,14.0,24,0.00,,,0.00,956.000000,,2013-06-16 22:32:00,
2013-06-16 16:42:00,67.0,29.0,-100.00,North,350,7.0,14.0,24,0.00,,,0.00,956.000000,,2013-06-16 22:42:00,
2013-06-16 16:52:00,67.0,29.0,-100.00,North,350,7.0,14.0,24,0.00,,,0.00,956.000000,,2013-06-16 22:52:00,
2013-06-16 17:01:00,67.0,29.0,-100.00,North,350,7.0,14.0,24,0.00,,,0.00,956.000000,,2013-06-16 23:01:00,
2013-06-16 17:32:00,67.0,33.0,-100.00,North,350,7.0,15.0,28,0.00,,,0.00,902.000000,,2013-06-16 23:32:00,
2013-06-16 17:42:00,67.0,33.0,-100.00,North,350,7.0,15.0,28,0.00,,,0.00,902.000000,,2013-06-16 23:42:00,
2013-06-16 17:52:00,67.0,33.0,-100.00,North,350,7.0,15.0,28,0.00,,,0.00,902.000000,,2013-06-16 23:52:00,
2013-06-16 18:01:00,67.0,33.0,-100.00,North,350,7.0,15.0,28,0.00,,,0.00,902.000000,,2013-06-17 00:01:00,
2013-06-16 18:32:00,66.0,31.0,-100.00,NNE,26,6.0,12.0,27,0.00,,,0.00,216.000000,,2013-06-17 00:32:00,
2013-06-16 18:43:00,66.0,31.0,-100.00,NNE,26,6.0,12.0,27,0.00,,,0.00,216.000000,,2013-06-17 00:43:00,
2013-06-16 18:52:00,66.0,31.0,-100.00,NNE,26,6.0,12.0,27,0.00,,,0.00,216.000000,,2013-06-17 00:52:00,
2013-06-16 19:02:00,66.0,31.0,-100.00,NNE,26,6.0,12.0,27,0.00,,,0.00,216.000000,,2013-06-17 01:02:00,
2013-06-16 19:32:00,64.0,33.0,-100.00,North,3,6.0,12.0,31,0.00,,,0.00,241.000000,,2013-06-17 01:32:00,
2013-06-16 19:43:00,64.0,33.0,-100.00,North,3,6.0,12.0,31,0.00,,,0.00,241.000000,,2013-06-17 01:43:00,
2013-06-16 19:53:00,64.0,33.0,-100.00,North,3,6.0,12.0,31,0.00,,,0.00,241.000000,,2013-06-17 01:53:00,
2013-06-16 20:02:00,64.0,33.0,-100.00,North,3,6.0,12.0,31,0.00,,,0.00,241.000000,,2013-06-17 02:02:00,
2013-06-16 20:34:00,62.0,33.0,-100.00,North,357,5.0,9.0,33,0.00,,,0.00,249.000000,,2013-06-17 02:34:00,
2013-06-16 20:43:00,62.0,33.0,-100.00,North,357,5.0,9.0,33,0.00,,,0.00,249.000000,,2013-06-17 02:43:00,
2013-06-16 20:53:00,62.0,33.0,-100.00,North,357,5.0,9.0,33,0.00,,,0.00,249.000000,,2013-06-17 02:53:00,
2013-06-16 21:02:00,62.0,33.0,-100.00,North,357,5.0,9.0,33,0.00,,,0.00,249.000000,,2013-06-17 03:02:00,
2013-06-16 21:33:00,59.0,32.0,-100.00,West,264,8.0,11.0,36,0.00,,,0.00,92.000000,,2013-06-17 03:33:00,
2013-06-16 21:44:00,59.0,32.0,-100.00,West,264,8.0,11.0,36,0.00,,,0.00,92.000000,,2013-06-17 03:44:00,
2013-06-16 21:54:00,59.0,32.0,-100.00,West,264,8.0,11.0,36,0.00,,,0.00,92.000000,,2013-06-17 03:54:00,
2013-06-16 22:02:00,59.0,32.0,-100.00,West,264,8.0,11.0,36,0.00,,,0.00,92.000000,,2013-06-17 04:02:00,
2013-06-16 22:43:00,58.0,30.0,-100.00,North,10,9.0,21.0,34,0.00,,,0.00,2.000000,,2013-06-17 04:43:00,
2013-06-16 22:53:00,58.0,30.0,-100.00,North,10,9.0,21.0,34,0.00,,,0.00,2.000000,,2013-06-17 04:53:00,
2013-06-16 23:02:00,58.0,30.0,-100.00,North,10,9.0,21.0,34,0.00,,,0.00,2.000000,,2013-06-17 05:02:00,
2013-06-16 23:33:00,56.0,31.0,-100.00,NE,45,6.0,14.0,38,0.00,,,0.00,0.000000,,2013-06-17 05:33:00,
2013-06-16 23:44:00,56.0,31.0,-100.00,NE,45,6.0,14.0,38,0.00,,,0.00,0.000000,,2013-06-17 05:44:00,
2013-06-16 23:53:00,56.0,31.0,-100.00,NE,45,6.0,14.0,38,0.00,,,0.00,0.000000,,2013-06-17 05:53:00,